Weather History for Montpelier, VT

Change the Weather History Date:

Friday, December 6, 2013

  Actual Average Record
Temperature  
Mean Temperature 37 °F 27 °F  
Max Temperature 43 °F 35 °F 67 °F (2001)
Min Temperature 30 °F 19 °F -4 °F (1954)
Degree Days  
Heating Degree Days 28 38  
Month to date heating degree days 203 222  
Since 1 July heating degree days 2107 2068  
Moisture  
Dew Point 35 °F    
Average Humidity 83    
Maximum Humidity 100    
Minimum Humidity 66    
Precipitation  
Precipitation 0.33 in 0.10 in 0.95 in (1984)
Month to date precipitation 0.40 0.60  
Year to date precipitation 35.49 35.13  
Sea Level Pressure  
Sea Level Pressure 29.99 in    
Wind  
Wind Speed 5 mph (NW)    
Max Wind Speed 15 mph    
Max Gust Speed 20 mph    
Visibility 6 miles    
Events Fog , Rain , Snow    
T = Trace of Precipitation, MM = Missing Value Source: NWS Daily Summary

Daily Weather History Graph

Daily Weather History Graph

Search for Another Location

Airport:

Trip Planner

Search our weather history database for the weather conditions in past years. The results will help you decide how hot, cold, wet, or windy it might be!

Date:

Astronomy

Dec. 06, 2013 Rise Set
Actual Time 7:11 AM EST 4:11 PM EST
Civil Twilight 6:38 AM EST 4:44 PM EST
Nautical Twilight 6:01 AM EST 5:20 PM EST
Astronomical Twilight 5:26 AM EST 5:55 PM EST
Moon 10:09 AM EST (12/6) 8:45 PM EST (12/6)
Length of Visible Light 10h 06m
Length of Day
9h 00m
Waxing Crescent, 19% of the Moon is Illuminated
Dec 6
Waxing Crescent
Dec 9
First Quarter
Dec 17
Full
Dec 25
Last Quarter
Jan 1
New

Hourly Weather History & Observations

Time (EST) Temp. Windchill Dew Point Humidity Pressure Visibility Wind Dir Wind Speed Gust Speed Precip Events Conditions
12:02 AM 39.2 °F - 39.2 °F 100% 29.89 in 1.8 mi Calm Calm - N/A   Overcast
12:10 AM 39.2 °F - 39.2 °F 100% 29.89 in 1.0 mi Calm Calm - 0.00 in Rain Light Rain
12:20 AM 37.4 °F - 37.4 °F 100% 29.89 in 1.5 mi Calm Calm - 0.01 in Rain Light Rain
12:40 AM 39.2 °F 34.2 °F 39.2 °F 100% 29.90 in 1.0 mi NNW 6.9 mph - 0.01 in   Overcast
12:47 AM 39.2 °F 35.9 °F 37.4 °F 93% 29.90 in 0.2 mi North 4.6 mph - 0.01 in Fog Fog
12:51 AM 39.0 °F 36.8 °F 39.0 °F 100% 29.92 in 0.2 mi East 3.5 mph - 0.01 in Fog Fog
1:00 AM 39.2 °F - 39.2 °F 100% 29.89 in 0.2 mi Calm Calm - 0.00 in Fog , Rain Light Rain
1:28 AM 42.8 °F 37.5 °F 41.0 °F 93% 29.90 in 1.2 mi NW 9.2 mph - 0.01 in   Overcast
1:31 AM 42.8 °F 38.6 °F 42.8 °F 100% 29.90 in 2.0 mi WNW 6.9 mph - 0.02 in Rain Light Rain
1:37 AM 42.8 °F 37.0 °F 42.8 °F 100% 29.91 in 2.5 mi NW 10.4 mph 16.1 mph 0.02 in Rain Light Rain
1:51 AM 43.0 °F 39.5 °F 43.0 °F 100% 29.95 in 2.5 mi WNW 5.8 mph - 0.04 in Rain Light Rain
1:59 AM 42.8 °F 40.1 °F 42.8 °F 100% 29.91 in 1.2 mi ENE 4.6 mph - 0.01 in Rain Light Rain
2:01 AM 41.0 °F 38.0 °F 41.0 °F 100% 29.91 in 0.8 mi ENE 4.6 mph - 0.01 in Rain Light Rain
2:10 AM 42.8 °F 41.1 °F 42.8 °F 100% 29.91 in 1.2 mi ESE 3.5 mph - 0.01 in Rain Light Rain
2:12 AM 42.8 °F - 42.8 °F 100% 29.92 in 2.0 mi Calm Calm - 0.01 in Rain Light Rain
2:20 AM 42.8 °F - 42.8 °F 100% 29.92 in 4.0 mi Calm Calm - 0.02 in Rain Light Rain
2:29 AM 42.8 °F - 42.8 °F 100% 29.93 in 2.5 mi Calm Calm - 0.05 in Rain Light Rain
2:51 AM 42.1 °F - 41.0 °F 96% 29.96 in 3.0 mi Calm Calm - 0.08 in Rain Light Rain
3:09 AM 42.8 °F - 41.0 °F 93% 29.91 in 2.0 mi Calm Calm - 0.01 in Rain Light Rain
3:19 AM 41.0 °F - 41.0 °F 100% 29.91 in 1.5 mi Calm Calm - 0.02 in Rain Light Rain
3:21 AM 41.0 °F - 41.0 °F 100% 29.91 in 1.0 mi Calm Calm - 0.03 in Rain Light Rain
3:29 AM 41.0 °F 37.1 °F 41.0 °F 100% 29.92 in 0.8 mi NNW 5.8 mph - 0.03 in Rain Light Rain
3:32 AM 41.0 °F 36.4 °F 39.2 °F 93% 29.92 in 1.2 mi NNW 6.9 mph - 0.03 in Rain Light Rain
3:34 AM 41.0 °F 35.8 °F 39.2 °F 93% 29.92 in 2.0 mi NNW 8.1 mph - 0.03 in Rain Light Rain
3:42 AM 41.0 °F 35.2 °F 41.0 °F 100% 29.93 in 6.0 mi NW 9.2 mph - 0.03 in Rain Light Rain
3:51 AM 41.0 °F 35.8 °F 39.9 °F 96% 29.96 in 7.0 mi NW 8.1 mph - 0.04 in Rain Light Rain
4:51 AM 39.0 °F 34.0 °F 37.0 °F 93% 29.98 in 6.0 mi NW 6.9 mph - 0.06 in Rain Light Rain
5:23 AM 37.4 °F 31.4 °F 35.6 °F 93% 29.98 in 5.0 mi WNW 8.1 mph - 0.03 in Rain Rain
5:47 AM 35.6 °F 30.7 °F 35.6 °F 100% 29.98 in 8.0 mi NW 5.8 mph 16.1 mph 0.05 in Rain Light Rain
5:51 AM 36.0 °F 33.3 °F 35.1 °F 97% 30.02 in 8.0 mi WNW 3.5 mph - 0.06 in Rain Light Rain
6:02 AM 35.6 °F 32.8 °F 35.6 °F 100% 29.97 in 5.0 mi Variable 3.5 mph - 0.01 in Rain Light Rain
6:37 AM 35.6 °F 30.7 °F 33.8 °F 93% 29.97 in 9.0 mi NW 5.8 mph - 0.02 in Rain Light Rain
6:51 AM 35.1 °F 32.2 °F 35.1 °F 100% 30.01 in 8.0 mi NW 3.5 mph - 0.02 in Rain Light Rain
6:59 AM 35.6 °F 31.7 °F 33.8 °F 93% 29.99 in 9.0 mi NNW 4.6 mph - 0.00 in Rain Light Rain
7:28 AM 33.8 °F 27.7 °F 33.8 °F 100% 30.01 in 10.0 mi NW 6.9 mph - 0.01 in Rain Light Rain
7:34 AM 33.8 °F 30.8 °F 33.8 °F 100% 30.00 in 10.0 mi NNW 3.5 mph - 0.01 in Rain Light Rain
7:51 AM 34.0 °F - 33.1 °F 96% 30.05 in 10.0 mi Calm Calm - 0.01 in Rain Light Rain
7:58 AM 33.8 °F - 32.0 °F 93% 30.01 in 5.0 mi Calm Calm - 0.00 in Snow Light Snow
8:24 AM 33.8 °F - 33.8 °F 100% 30.03 in 7.0 mi Calm Calm - 0.01 in Snow Light Snow
8:48 AM 35.6 °F - 33.8 °F 93% 30.01 in 10.0 mi Calm Calm - 0.01 in   Overcast
8:51 AM 35.1 °F - 33.1 °F 92% 30.05 in 10.0 mi Calm Calm - 0.01 in   Overcast
9:51 AM 35.1 °F - 33.1 °F 92% 30.08 in 10.0 mi Calm Calm - N/A   Overcast
10:51 AM 35.1 °F - 33.1 °F 92% 30.07 in 10.0 mi Calm Calm - N/A   Overcast
11:51 AM 35.1 °F - 32.0 °F 89% 30.07 in 10.0 mi Calm Calm - N/A   Overcast
12:51 PM 35.1 °F 30.1 °F 30.9 °F 85% 30.07 in 10.0 mi NNW 5.8 mph - N/A   Overcast
1:51 PM 35.1 °F 27.9 °F 30.0 °F 82% 30.06 in 10.0 mi NNW 9.2 mph - N/A   Clear
2:51 PM 34.0 °F 27.2 °F 28.0 °F 79% 30.07 in 10.0 mi NNW 8.1 mph - N/A   Clear
3:51 PM 33.1 °F 25.5 °F 25.0 °F 72% 30.09 in 10.0 mi NW 9.2 mph - N/A   Clear
4:51 PM 33.1 °F 26.1 °F 25.0 °F 72% 30.11 in 10.0 mi NW 8.1 mph - N/A   Scattered Clouds
5:51 PM 32.0 °F 23.0 °F 25.0 °F 75% 30.12 in 10.0 mi WNW 11.5 mph - N/A   Clear
6:51 PM 32.0 °F 28.7 °F 23.0 °F 69% 30.14 in 10.0 mi NW 3.5 mph - N/A   Clear
7:51 PM 32.0 °F 24.2 °F 23.0 °F 69% 30.15 in 10.0 mi NW 9.2 mph - N/A   Clear
8:51 PM 30.9 °F 26.2 °F 24.1 °F 76% 30.17 in 10.0 mi Variable 4.6 mph - N/A   Overcast
9:51 PM 30.9 °F - 24.1 °F 76% 30.18 in 10.0 mi Calm Calm - N/A   Overcast
10:51 PM 30.9 °F 25.2 °F 23.0 °F 72% 30.18 in 10.0 mi NNW 5.8 mph - N/A   Overcast
11:51 PM 30.0 °F 25.2 °F 23.0 °F 75% 30.17 in 10.0 mi NW 4.6 mph - N/A   Overcast